TIME,DELAY(SENSOR),PRES,T(CTD),SAL,OXYGEN,RAWTEMP,T(OPTODE),TCPHASE,FLUOR,BETA(BETA700),BETA(BETA412),BETA(BETA440),CDOM,C(CSC),ED(ED411.90),ED(ED443.80),ED(ED489.40),ED(ED554.70),LU(LU412.20),LU(LU443.80),LU(LU489.40),LU(LU555.00),COMP,TILTX,TILTX(TILTY),CHECK
1375456078,5805,497.1799926757812500,16.5926990509033200,36.2835006713867200,201.7404022216797000,202.0919036865234400,16.5852909088134770,33.1437416076660160,61,552,62,61,58,9839,2146959899,2147516141,2147272539,2147460973,2147084626,2146948809,2147651995,2147120786,1302,-1,8,32579
1375456195,5808,485.9700012207031000,16.7952003479003900,36.3199005126953100,202.7335052490234400,194.5883941650390600,16.8114604949951170,32.9800910949707000,61,561,62,61,58,9836,2146956553,2147517275,2147274788,2147461330,2147081965,2146949074,2147653248,2147119158,772,-1,7,31645
1375456310,5803,475.0899963378906000,17.0757999420166000,36.3757019042968750,210.1468963623047000,185.9790039062500000,17.0710201263427730,32.4384193420410160,61,569,63,62,58,9838,2146956699,2147512978,2147273846,2147461888,2147080219,2146952073,2147653156,2147120073,3495,-1,8,33925
1375456425,5806,464.3099975585937500,17.3295001983642580,36.4221992492675800,214.8558044433593800,177.6607055664062500,17.3218898773193360,32.0655212402343750,60,555,62,62,59,9837,2146958784,2147515062,2147271689,2147457965,2147081252,2146949705,2147651867,2147118610,3548,-1,8,5507
1375456542,5805,453.4299926757812500,17.4654006958007800,36.4505996704101560,216.4826965332031200,173.0227966308593800,17.4618091583251950,31.9140796661376950,61,570,63,61,59,9836,2146954843,2147513097,2147272283,2147458294,2147079798,2146949440,2147650459,2147124717,2940,-1,8,11280
1375456669,5802,441.9500122070312500,17.6021003723144530,36.4794006347656250,220.3594055175781200,168.4468994140625000,17.5998706817626950,31.6467895507812500,59,564,63,62,58,9839,2146955090,2147514514,2147271332,2147452178,2147081289,2146953782,2147648868,2147123474,2358,-1,8,63977
1375456784,5807,431.5400085449219000,17.7173004150390620,36.5018997192382800,223.1376953125000000,164.6847991943359400,17.7134094238281250,31.4515209197998050,61,565,63,61,57,9837,2146955730,2147512109,2147269906,2147452818,2147084187,2146954651,2147653357,2147126537,1816,-1,8,58720
1375456913,5804,420.0799865722656000,17.7548999786376950,36.5018005371093750,221.7420959472656200,163.1515045166015600,17.7597007751464840,31.5027008056640620,60,572,62,60,57,9832,2146959734,2147512457,2147270985,2147454272,2147082806,2146954797,2147648822,2147126500,1206,-1,8,2203
1375457040,5804,409.0299987792969000,17.8283996582031250,36.5134010314941400,220.9297943115234400,161.0762023925781200,17.8223495483398440,31.5167903900146500,59,568,62,62,57,9835,2146955666,2147513033,2147271396,2147454811,2147085001,2146957330,2147648512,2147130523,1135,-1,8,54101
1375457169,5810,398.2200012207031000,17.8945007324218750,36.5271987915039060,222.7089996337890600,158.5653991699218800,17.8981494903564450,31.3906497955322270,60,561,62,62,58,9832,2146956608,2147511332,2147265590,2147452525,2147078482,2146954349,2147646701,2147125568,25,-2,8,61061
1375457296,5805,387.7500000000000000,17.9589004516601560,36.5393981933593750,223.7232971191406200,156.6793975830078000,17.9550991058349600,31.3128509521484380,59,577,63,61,59,9835,2146958400,2147513398,2147269677,2147453952,2147085860,2146953856,2147650075,2147125604,2346,-1,8,9159
1375457435,5804,376.4899902343750000,18.0366992950439450,36.5476989746093750,225.0189056396484400,154.1546020507812500,18.0313396453857420,31.2127990722656250,61,569,63,61,57,9832,2146956489,2147514075,2147268672,2147451117,2147083172,2146958098,2147650057,2147126701,1552,-1,8,59448
1375457576,5802,365.0199890136719000,18.0811004638671880,36.5488014221191400,226.7140960693359400,152.6535034179687500,18.0766792297363280,31.1067008972167970,61,568,63,62,56,9832,2146957531,2147512320,2147270573,2147454326,2147078848,2146956553,2147647076,2147124489,1029,-1,8,8883
1375457703,5807,354.7500000000000000,18.1655006408691400,36.5615997314453100,226.6851043701172000,149.9465026855468800,18.1584606170654300,31.0719604492187500,61,568,62,62,58,9828,2146955218,2147514057,2147271360,2147452123,2147080438,2146955629,2147648941,2147126363,298,-1,7,16258
1375457844,5806,343.0100097656250000,18.1818008422851560,36.5575981140136700,227.9179992675781200,149.1887969970703000,18.1813507080078120,31.0000705718994140,61,571,62,62,57,9832,2146958564,2147517632,2147267574,2147449974,2147075181,2146958208,2147648128,2147126637,2610,-1,8,12267
1375457971,5807,332.5199890136719000,18.2665996551513670,36.5676994323730500,225.8495025634765600,146.4423980712890600,18.2643299102783200,31.0669193267822270,59,563,63,62,57,9829,2146959085,2147514313,2147268973,2147448365,2147080694,2146955739,2147647460,2147127149,1816,-2,8,25925
1375458112,5804,321.3900146484375000,18.3705005645751950,36.5763015747070300,220.9813995361328000,143.0370941162109400,18.3672409057617200,31.2694892883300780,60,566,62,62,57,9833,2146959067,2147511350,2147270939,2147451282,2147073115,2146958052,2147649051,2147125147,639,-1,8,25531
1375458251,5804,311.1000061035156000,18.4552993774414060,36.5825004577636700,221.7023925781250000,140.2167053222656200,18.4524898529052730,31.1944904327392580,60,570,64,62,57,9833,2146959085,2147516982,2147269083,2147450916,2147079396,2146954797,2147648429,2147125504,2796,-2,8,63555
1375458435,5807,297.5599975585937500,18.5323009490966800,36.5746002197265600,230.7366027832031200,137.3404998779297000,18.5394496917724600,30.7019805908203120,60,563,62,63,56,9831,2146955684,2147515565,2147269613,2147449499,2147073984,2146959186,2147649426,2147127341,1253,-2,8,43036
1375458567,5809,285.7699890136719000,18.6895999908447270,36.5927009582519500,226.6006927490234400,132.6175994873047000,18.6822891235351560,30.8438606262207030,59,565,63,62,57,9827,2146960246,2147510747,2147268964,2147450660,2147076141,2146955894,2147648493,2147125851,51,-1,8,57217
1375458682,5804,274.9400024414062500,18.7682991027832030,36.5966987609863300,224.7976989746093800,129.6963043212890600,18.7706604003906250,30.8957405090332030,59,569,63,62,59,9828,2146956160,2147512960,2147269540,2147448676,2147073526,2146964288,2147657664,2147127222,2768,-1,8,54757
1375458799,5807,264.0299987792969000,18.8728008270263670,36.6060981750488300,224.3287963867187500,126.2509002685546900,18.8749294281005860,30.8734207153320300,60,574,62,62,57,9827,2146953746,2147514404,2147268818,2147447844,2147077449,2146963529,2147660333,2147128109,2980,-1,8,52923
1375458914,5810,253.3200073242187500,18.9568996429443360,36.6081008911132800,223.1347045898437500,122.7649002075195300,18.9804401397705080,30.8874206542968750,60,571,62,62,58,9827,2146958537,2147514093,2147270802,2147449600,2147079753,2146969005,2147665892,2147128064,1892,-1,9,64909
1375459029,5809,242.7299957275390600,19.1756992340087900,36.6142005920410160,222.9873962402343800,116.4841995239257800,19.1706409454345700,30.8114395141601560,60,557,62,61,57,9829,2146953371,2147513243,2147272557,2147448164,2147074450,2146967222,2147674605,2147127926,1818,-2,8,40005
1375459158,5808,231.4199981689453000,19.4050006866455080,36.6276016235351560,223.2467041015625000,108.4740982055664000,19.4133701324462900,30.6916999816894530,60,567,61,62,56,9824,2146955346,2147519177,2147269714,2147447689,2147074121,2146975030,2147685531,2147129408,873,-1,8,48286
1375459285,5805,220.6799926757812500,19.5701999664306640,36.6431999206543000,212.6239013671875000,103.2496032714843800,19.5717906951904300,31.1756095886230470,60,573,62,62,58,9825,2146955648,2147516233,2147269805,2147446125,2147083282,2146978395,2147704603,2147131666,3072,-1,8,41455
1375459414,5802,209.8300018310547000,19.7026996612548830,36.6450996398925800,215.8117980957031200,99.0604934692382800,19.6988792419433600,30.9504203796386720,60,556,62,62,58,9834,2146957248,2147516681,2147270793,2147444589,2147082724,2146993316,2147741385,2147133824,2365,-1,8,19238
1375459553,5808,198.6499938964843800,19.9540004730224600,36.6604995727539060,215.0101013183593800,91.1394729614257800,19.9393501281738280,30.8875999450683600,60,572,63,62,57,9827,2146956699,2147518052,2147272566,2147440128,2147086464,2147018459,2147813622,2147134427,1672,-1,8,17322
1375459608,5808,194.2899932861328000,19.9929008483886720,36.6623992919921900,210.6878051757812500,89.5278472900390600,19.9883003234863280,31.0967903137207030,60,572,62,61,58,9827,2146958016,2147516781,2147274230,2147440822,2147084662,2147030043,2147845184,2147136493,1800,-1,8,54493
1375459663,5801,189.9299926757812500,20.0118999481201170,36.6529006958007800,215.3529052734375000,88.8512115478515600,20.0088596343994140,30.8391990661621100,60,561,62,63,57,9829,2146956690,2147516169,2147272475,2147441874,2147086061,2147048539,2147875949,2147138660,1527,-1,8,42650
1375459743,5807,184.0399932861328000,20.0883998870849600,36.6530990600585940,224.3235015869140600,86.4453430175781200,20.0819606781005860,30.3476009368896500,60,568,63,61,57,9828,2146957714,2147516333,2147275821,2147440329,2147087561,2147067748,2147914057,2147139739,1421,-1,8,10251
1375459810,5805,179.6699981689453000,20.1809997558593750,36.6548995971679700,228.3426971435547000,83.0396499633789000,20.1854705810546880,30.1039600372314450,60,565,62,62,56,9824,2146960164,2147518217,2147274230,2147440950,2147086994,2147057289,2147901714,2147140745,1341,-1,8,34943
1375459865,5806,176.2700042724609400,20.2518997192382800,36.6436996459960940,228.2519073486328000,79.7860183715820300,20.2844009399414060,30.0661106109619140,62,570,63,62,56,9819,2146957065,2147518509,2147277257,2147440777,2147087826,2147065901,2147916827,2147140544,1410,-1,8,16618
1375459932,5804,172.2400054931640600,20.3395004272460940,36.6304016113281250,233.5372009277343800,77.9412078857421900,20.3405208587646500,29.7873497009277340,62,572,62,63,57,9817,2146958281,2147516772,2147274459,2147437988,2147090550,2147068507,2147908873,2147140178,1989,-1,8,60344
1375459999,5808,168.3099975585937500,20.4676990509033200,36.6421012878418000,236.0482940673828000,73.7311401367187500,20.4686203002929700,29.6144599914550780,61,577,62,63,55,9813,2146958390,2147516123,2147276352,2147441097,2147090797,2147062107,2147901915,2147140068,1873,-1,8,29280
1375460083,5802,164.3099975585937500,20.6429004669189450,36.6501007080078100,235.4653930664062500,68.7985229492187500,20.6187992095947270,29.5783805847167970,63,565,62,62,56,9819,2146959259,2147515428,2147275638,2147438930,2147093787,2147082029,2147928329,2147143286,1245,-2,9,62593
1375460198,5802,161.1999969482422000,20.7318000793457030,36.6701011657714840,232.3200073242187500,65.5714263916015600,20.7171001434326170,29.6856498718261720,62,569,62,62,56,9822,2146956077,2147519442,2147274962,2147439552,2147093339,2147070921,2147912009,2147143844,1296,-2,8,22900
1375460387,5804,157.1100006103515600,20.8525009155273440,36.6944999694824200,224.7209930419922000,61.3576316833496100,20.8455200195312500,30.0005493164062500,61,568,61,62,57,9826,2146960365,2147518985,2147273408,2147437165,2147093696,2147073691,2147902820,2147142665,427,-2,8,53108
1375460502,5805,152.5299987792968800,20.9430999755859380,36.7032012939453100,221.8058013916015600,58.1506118774414060,20.9433097839355470,30.1046791076660160,61,565,62,62,57,9825,2146957558,2147519552,2147278409,2147439360,2147096384,2147096886,2147944155,2147146130,3481,-2,9,64319
1375460593,5802,148.7500000000000000,21.1312999725341800,36.7162017822265600,214.5455932617187500,52.4528388977050800,21.1171607971191400,30.4026603698730470,61,572,63,63,57,9826,2146954770,2147516827,2147277184,2147435501,2147099830,2147117421,2147975808,2147145728,2909,-1,8,48665
1375460702,5807,143.7400054931640600,21.2012996673584000,36.7064018249511700,212.3800048828125000,49.8285293579101560,21.1972904205322270,30.4822902679443360,61,570,63,63,56,9823,2146956672,2147519451,2147277202,2147434212,2147104164,2147142710,2148030116,2147151789,154,-1,8,54599
1375460769,5807,139.8899993896484400,21.2663993835449220,36.7000999450683600,215.8356018066406200,47.5643692016601560,21.2664394378662100,30.2717494964599600,61,574,62,63,56,9823,2146959826,2147517202,2147279670,2147435949,2147108900,2147162779,2148071552,2147153581,58,-1,8,45947
1375460836,5807,136.1199951171875000,21.3663005828857420,36.7062988281250000,217.7554931640625000,44.4505805969238300,21.3615703582763670,30.1324996948242200,62,564,63,61,57,9824,2146955931,2147521517,2147279890,2147433380,2147113152,2147185645,2148120228,2147156836,65,-1,8,13857
1375460903,5810,132.6300048828125000,21.4811992645263670,36.6660003662109400,219.3591003417968800,40.9564895629882800,21.4683895111084000,30.0053005218505860,62,574,61,62,57,9815,2146956818,2147519213,2147283026,2147434422,2147120082,2147215753,2148169746,2147159844,36,-1,9,55278
1375460996,5799,128.7700042724609400,21.5421009063720700,36.6581993103027340,230.1040954589843800,38.7252807617187500,21.5366191864013670,29.4470291137695300,64,574,62,62,55,9809,2146960109,2147520228,2147283538,2147431853,2147130084,2147250349,2148230436,2147162825,535,-1,8,53831
1375461099,5804,124.9499969482421900,21.7474002838134770,36.6371002197265600,234.7277984619140600,32.7998313903808600,21.7179508209228500,29.1527996063232420,63,571,62,62,56,9808,2146962185,2147522898,2147288859,2147433024,2147140809,2147306386,2148356937,2147176009,3514,-1,9,32137
1375461238,5807,121.1100006103515600,21.7719001770019530,36.6198997497558600,237.8636016845703000,31.0214099884033200,21.7724094390869140,28.9848995208740230,62,569,63,61,55,9807,2146957668,2147521965,2147291611,2147432987,2147155574,2147371684,2148478774,2147180717,212,-1,9,42591
1375461371,5806,116.9100036621093800,22.3251991271972660,36.6346015930175800,239.4963073730468800,14.7624797821044920,22.2710208892822270,28.7052593231201170,63,575,62,63,56,9799,2146959488,2147523849,2147296832,2147432448,2147177426,2147450121,2148617206,2147190957,585,-2,9,37706
1375461624,5806,112.3099975585937500,22.8859996795654300,36.7122993469238300,209.1851043701172000,-4.3827648162841800,22.8599700927734380,29.9475307464599600,65,578,61,62,57,9799,2146963200,2147531145,2147307776,2147428608,2147223296,2147634742,2148965814,2147216045,3235,-1,8,48588
1375461715,5808,108.8799972534179700,23.4213008880615230,36.7207984924316400,205.5124969482422000,-21.2433891296386720,23.3804092407226560,29.9269695281982420,66,580,62,62,57,9796,2146963282,2147538770,2147324388,2147430272,2147273865,2147839716,2149357860,2147244498,102,-2,9,55516
1375461980,5803,105.0800018310546900,23.7068004608154300,36.7056999206543000,192.8336029052734400,-31.1859493255615230,23.6881294250488280,30.5073509216308600,67,575,62,62,57,9792,2146964096,2147537828,2147317010,2147424868,2147285211,2147794505,2149215122,2147241371,3054,-1,9,45558
1375462119,5807,100.9499969482421900,23.8321990966796880,36.6731986999511700,197.7312927246093800,-35.4347610473632800,23.8198299407959000,30.1720695495605470,67,578,63,62,57,9792,2146965970,2147548086,2147331693,2147425883,2147364242,2148050898,2149682148,2147280027,3373,-2,9,60191
1375462186,5807,99.0699996948242200,23.9379997253417970,36.6529998779296900,203.0664978027343800,-38.9990806579589840,23.9304008483886720,29.8309192657470700,67,573,62,62,57,9792,2146968018,2147549229,2147349330,2147425270,2147433609,2148291730,2150124260,2147318116,169,-2,9,132
1375462272,5806,96.9800033569336000,24.1464996337890620,36.6333007812500000,208.6690063476562500,-45.5981101989746100,24.1353397369384770,29.4464702606201170,66,577,62,62,55,9793,2146969865,2147543131,2147329545,2147421449,2147380233,2148042340,2149594706,2147281088,3102,-2,9,22572
1375462339,5805,95.2399978637695300,24.3376007080078120,36.6521987915039060,204.0346069335937500,-51.1963500976562500,24.3094291687011720,29.6217994689941400,68,575,63,63,57,9786,2146968493,2147545234,2147329252,2147422198,2147391899,2148043840,2149568859,2147278436,2330,-2,9,19786
1375462430,5803,93.0899963378906200,24.4491996765136720,36.6473999023437500,199.2196960449218800,-55.1901512145996100,24.4337692260742200,29.8341102600097660,69,574,62,62,58,9781,2146968374,2147545828,2147336228,2147422390,2147439433,2148164516,2149761554,2147302418,2251,-2,9,9577
1375462509,5809,91.3600006103515600,24.5480995178222660,36.6375999450683600,198.2400970458984400,-58.2761993408203100,24.5299205780029300,29.8486309051513670,69,577,62,63,58,9781,2146971821,2147551990,2147344731,2147420626,2147486180,2148289554,2149986971,2147324297,2767,-2,9,37133
1375462606,5804,89.2200012207031200,24.6445007324218750,36.6263008117675800,199.2109985351562500,-61.4893188476562500,24.6301002502441400,29.7535495758056640,69,579,63,62,56,9778,2146972635,2147558756,2147359606,2147421385,2147579337,2148541970,2150419611,2147371044,2824,-2,9,51977
1375462673,5804,87.1100006103515600,24.7000007629394530,36.6203994750976560,200.7003021240234400,-63.4634513854980500,24.6916904449462900,29.6460895538330080,71,577,62,62,56,9776,2146976484,2147564644,2147372544,2147422720,2147655332,2148722614,2150716233,2147405165,2896,-2,9,11173
1375462740,5806,85.0599975585937500,24.9270000457763670,36.5890998840332000,202.0740051269531200,-70.8921432495117200,24.9237098693847660,29.4759597778320300,70,579,62,63,57,9772,2146981430,2147574144,2147389339,2147426550,2147766445,2148965074,2151115154,2147447506,2722,-1,9,15682
1375462807,5804,83.5699996948242200,25.1450004577636720,36.5509986877441400,205.2736968994140600,-76.2665481567382800,25.0918197631835940,29.2354907989501950,72,578,61,63,57,9767,2146984667,2147573494,2147394560,2147422025,2147833700,2149111149,2151323876,2147472987,1988,-2,9,60615
1375462904,5807,82.2799987792968800,25.3390998840332030,36.5279006958007800,208.6201019287109400,-83.0614929199218800,25.3046894073486330,28.9734001159667970,73,575,62,62,56,9760,2146990116,2147586029,2147413440,2147424841,2147983506,2149456896,2151891346,2147533824,1766,-2,9,37199
1375463205,5806,80.3000030517578100,25.5552997589111330,36.4970016479492200,219.2615966796875000,-90.6938629150390600,25.5442104339599600,28.3401794433593750,76,581,62,64,56,9747,2147004141,2147615542,2147473334,2147426834,2148390729,2150343478,2153347520,2147701805,1241,-2,9,52948
1375463284,5802,78.2600021362304700,25.7747993469238280,36.4595985412597660,219.7008056640625000,-97.0384597778320300,25.7436790466308600,28.2397499084472660,77,580,62,63,55,9745,2147014610,2147632795,2147512960,2147433536,2148642953,2150857161,2154114715,2147800987,785,-2,9,2154
1375463411,5805,76.9199981689453100,25.8558998107910160,36.4375991821289060,230.0189056396484400,-99.6276626586914000,25.8251800537109380,27.7183494567871100,82,579,61,63,58,9737,2147013184,2147630400,2147510848,2147431259,2148687378,2150848246,2154066998,2147811126,686,-1,9,26688
1375463568,5803,73.7300033569336000,25.9307003021240230,36.4197006225585940,230.4315032958984400,-103.0699996948242200,25.9336109161376950,27.6568107604980470,80,577,62,64,56,9732,2147025481,2147642029,2147523181,2147429888,2148976557,2151221330,2154503552,2147907529,1204,-1,9,9031
1375463623,5806,71.6600036621093800,26.0547008514404300,36.3816986083984400,230.3847045898437500,-106.3638992309570300,26.0374603271484380,27.6184196472167970,82,582,62,63,56,9728,2147037961,2147664941,2147559652,2147434889,2149302052,2151783652,2155350244,2148031387,1293,-1,9,54885
1375463678,5803,70.2200012207031200,26.0701999664306640,36.3790016174316400,236.9523010253906200,-107.2518005371093800,26.0654697418212900,27.3106403350830080,79,580,63,63,56,9727,2147049444,2147682660,2147585526,2147435803,2149585828,2152276489,2156039634,2148136822,1435,-1,9,19521
1375463769,5810,68.6200027465820300,26.1457996368408200,36.3622016906738300,241.2230072021484400,-109.4858016967773400,26.1359691619873050,27.0955104827880860,82,576,61,63,57,9715,2147062144,2147698834,2147613732,2147440749,2149928384,2152837586,2156817152,2148256411,1618,-2,9,52576
1375463890,5808,66.0199966430664000,26.2707996368408200,36.3418006896972660,245.1266021728515600,-113.4415969848632800,26.2609100341796880,26.8793601989746100,83,573,61,64,56,9711,2147093851,2147749074,2147694500,2147447561,2150831661,2154245238,2158668946,2148548653,1622,-2,9,45268
1375463957,5804,63.8100013732910160,26.3111000061035160,36.3202018737793000,252.3791961669922000,-114.7583007812500000,26.3025302886962900,26.5593605041503900,79,576,62,62,55,9711,2147119296,2147781961,2147736667,2147452416,2151458377,2155112594,2159669248,2148724114,1585,-1,9,9562
1375464012,5804,61.9500007629394500,26.3698005676269530,36.2919998168945300,259.6816101074219000,-116.7798004150390600,26.3664493560791000,26.2392005920410160,75,572,60,63,55,9734,2147139373,2147804626,2147764022,2147454546,2151916443,2155708397,2160196160,2148825097,1820,-1,9,9531
1375464079,5809,60.0800018310546900,26.4699993133544920,36.2999992370605500,269.8461914062500000,-119.7111968994140600,26.4592094421386720,25.8081703186035160,75,569,62,62,56,9733,2147192813,2147877787,2147878765,2147465426,2153331126,2158070363,2163299949,2149308224,1853,-1,9,59535
1375464164,5808,57.5999984741210940,26.5517005920410160,36.2804985046386700,275.8113098144531000,-122.3863983154296900,26.5439300537109380,25.5520896911621100,72,564,61,63,56,9729,2147258477,2147972973,2148002550,2147481837,2155006144,2160543149,2166142756,2149769892,1712,-2,9,19250
1375464219,5807,55.6500015258789060,26.6254005432128900,36.2669982910156250,286.0021057128906000,-125.0108032226562500,26.6270904541015620,25.1507892608642580,71,567,61,63,55,9736,2147327753,2148068827,2148138761,2147496594,2156776512,2163187858,2169136411,2150251300,1596,-1,9,54605
1375464361,5803,51.9500007629394500,26.6919002532959000,36.2487983703613300,301.5317077636719000,-127.1213989257812500,26.6940307617187500,24.5897407531738280,71,575,61,64,55,9712,2147437101,2148200292,2148277129,2147522706,2159611456,2166927853,2172581732,2150881280,1317,-2,9,444
1375464394,5804,50.8699989318847660,26.7110996246337900,36.2431983947753900,307.5867919921875000,-127.6986999511718800,26.7123394012451170,24.3824005126953120,70,561,61,63,55,9712,2147465142,2148233572,2148325513,2147535972,2160319021,2167711899,2173078875,2150992566,1122,-2,9,60260
1375464468,5808,48.0999984741210940,26.7593002319335940,36.2421989440918000,326.0331115722656000,-129.2604980468750000,26.7618999481201170,23.7795200347900400,68,559,61,63,53,9715,2147635337,2148444160,2148599460,2147596397,2164723922,2173642523,2179002971,2152101138,769,-2,9,38876
1375464501,5806,46.4399986267089840,26.7742004394531250,36.2434997558593750,331.4234924316406000,-129.7489013671875000,26.7773990631103500,23.6099796295166000,69,561,61,62,53,9716,2147758080,2148594742,2148779638,2147635611,2167960091,2177991899,2183409664,2152931748,686,-1,9,9654
1375464534,5806,44.7200012207031250,26.7826004028320300,36.2426986694335940,341.7651977539062500,-130.1145935058593800,26.7890090942382800,23.2993297576904300,68,559,61,63,54,9716,2147896960,2148760987,2148980955,2147677796,2171621632,2182804224,2188115803,2153812772,691,-2,9,26747
1375464579,5802,42.4000015258789060,26.8379993438720700,36.2436981201171900,350.9359130859375000,-131.7787933349609400,26.8418598175048830,23.0172996520996100,67,556,61,64,55,9714,2148029220,2148894802,2149106843,2147706779,2175096676,2186909120,2191532068,2154550720,801,-1,8,55319
1375464612,5806,40.7900009155273440,26.8661003112792970,36.2473983764648440,368.6926879882812500,-132.7611999511718800,26.8730602264404300,22.5174503326416000,67,566,60,63,56,9712,2148225636,2149122377,2149371392,2147764196,2180466843,2193763785,2198302710,2155970450,858,-2,9,36726
1375464657,5805,38.8199996948242200,26.9146995544433600,36.2335014343261700,391.3811950683594000,-134.3011932373047000,26.9220008850097660,21.9116706848144530,66,553,60,63,54,9709,2148419273,2149320731,2149565449,2147824512,2185450413,2199491236,2202953764,2156987730,721,-1,8,62375